This demonstration page uses our WeatherBlox Daily Observations layout. Learn more.

Left ArrowRight Arrow

39.29038, -76.61219

Hourly Observations for February 8, 2019

Temp ( °F °C ) Dew Point ( °F °C ) Humidity (%) Winds ( mph kmh ) Pressure ( in mb ) Visibility ( mi km ) Precip ( " mm )
12:54 am 00:54 undefined 42 5.6 41 5 96 96 undefined N/A 29.95 1014 N/A 0.00 0.00
1:54 am 01:54 undefined 42 5.6 40 4.4 92 92 undefined N/A 29.96 1015 N/A 0.00 0.00
2:54 am 02:54 undefined 43 6.1 41 5 93 93 undefined N/A 29.95 1014 N/A 0.00 0.00
3:54 am 03:54 undefined 42 5.6 40 4.4 92 92 undefined N/A 29.95 1014 N/A 0.00 0.00
4:54 am 04:54 undefined 42 5.6 40 4.4 92 92 undefined N/A 29.94 1014 N/A 0.00 0.00
5:54 am 05:54 undefined 42 5.6 40 4.4 92 92 undefined N/A 29.95 1014 N/A 0.00 0.00
6:54 am 06:54 undefined 43 6.1 40 4.4 89 89 undefined N/A 29.96 1014 N/A 0.00 0.00
7:54 am 07:54 undefined 44 6.7 41 5 89 89 undefined N/A 29.94 1014 N/A 0.00 0.00
8:54 am 08:54 undefined 45 7.2 42 5.6 90 90 undefined N/A 29.95 1014 N/A 0.00 0.00
9:54 am 09:54 undefined 48 8.9 44 6.7 86 86 undefined N/A 29.98 1015 N/A 0.01 0.25
10:54 am 10:54 undefined 52 11.1 45 7.2 77 77 undefined N/A 30.02 1017 N/A 0.00 0.00
11:54 am 11:54 undefined 56 13.3 34 1.1 44 44 undefined N/A 30.03 1017 N/A 0.00 0.00
12:54 pm 12:54 undefined 56 13.3 29 -1.7 36 36 undefined N/A 30.05 1018 N/A 0.00 0.00
1:54 pm 13:54 undefined 55 12.8 26 -3.3 33 33 undefined N/A 30.08 1019 N/A 0.00 0.00
2:54 pm 14:54 undefined 53 11.7 16 -8.9 23 23 undefined N/A 30.05 1018 N/A 0.00 0.00
3:54 pm 15:54 undefined 50 10 13 -10.6 22 22 undefined N/A 30.10 1019 N/A 0.00 0.00
4:54 pm 16:54 undefined 49 9.4 16 -8.9 27 27 undefined N/A 30.13 1020 N/A 0.00 0.00
5:54 pm 17:54 undefined 46 7.8 16 -8.9 30 30 undefined N/A 30.17 1022 N/A 0.00 0.00
6:54 pm 18:54 undefined 45 7.2 17 -8.3 33 33 undefined N/A 30.23 1024 N/A 0.00 0.00
7:54 pm 19:54 undefined 42 5.6 15 -9.4 33 33 undefined N/A 30.27 1025 N/A 0.00 0.00
8:54 pm 20:54 undefined 39 3.9 13 -10.6 34 34 undefined N/A 30.32 1027 N/A 0.00 0.00
9:54 pm 21:54 undefined 37 2.8 11 -11.7 34 34 undefined N/A 30.35 1028 N/A 0.00 0.00
10:54 pm 22:54 undefined 36 2.2 11 -11.7 35 35 undefined N/A 30.40 1029 N/A 0.00 0.00
11:54 pm 23:54 undefined 34 1.1 11 -11.7 38 38 undefined N/A 30.39 1029 N/A 0.00 0.00

Powered by AerisWeather